Wind_Speed
6 9 13 14 16 15 16 18 18 19 20 21 22 24 26 28 26 29 35 36 39 44 42 40 33 30 26 20 19 22 24 26 28 28 31 32 32 31 28 25 21 19 18
3 7 10 10 12 12 12 10 11 16 15 17 18 20 22 23 24 26 25 28 30 37 33 44 44 36 37 28 19 17 20 22 24 26 27 28 28 31 32 31 27 23 19
8 7 9 10 10 8 7 11 9 10 13 15 14 13 16 19 24 30 20 26 24 27 33 33 35 36 38 39 30 18 19 20 21 22 23 25 26 27 28 29 31 29 24
14 9 5 6 4 3 5 8 4 6 7 10 9 10 14 17 16 17 18 21 19 24 26 27 31 31 29 35 29 23 22 22 21 19 19 20 21 23 24 25 25 27 28
12 9 1 1 1 5 1 0 2 4 5 5 8 13 14 15 14 13 15 16 16 23 31 19 23 24 24 28 31 25 24 24 25 27 27 25 24 22 20 20 21 22 23
17 14 12 6 15 10 5 4 1 4 4 3 5 11 10 16 14 15 14 14 18 16 17 18 18 17 25 25 25 24 22 21 22 24 26 26 27 28 29 24 20 21 21
19 18 14 13 12 11 10 9 10 5 8 11 8 11 11 15 13 15 14 15 17 17 17 16 16 19 21 21 21 22 19 17 16 17 22 23 23 24 26 26 25 20 19
24 25 23 20 17 16 17 16 16 17 13 12 14 16 15 17 13 17 17 18 19 16 17 17 17 15 19 22 20 17 19 17 16 14 15 17 18 19 19 22 22 22 23
30 29 28 28 25 23 20 20 21 22 20 18 18 18 17 15 13 15 17 18 18 17 17 18 16 20 17 17 15 9 12 15 14 11 10 11 12 9 11 13 15 18 19
33 32 33 34 33 28 27 25 23 24 25 22 19 19 19 17 17 19 20 19 20 19 17 18 19 15 14 7 10 6 12 8 12 15 12 10 10 7 4 6 7 9 11
34 32 32 33 31 32 33 33 32 30 27 24 23 21 20 20 21 23 25 18 15 17 15 16 18 16 10 10 12 13 13 14 9 14 16 15 11 6 3 2 5 5 6
32 35 34 35 35 34 34 34 32 34 31 32 30 27 22 23 23 22 21 15 17 15 15 15 15 15 15 11 11 17 13 13 12 11 14 15 13 12 6 0 2 3 4
25 32 35 37 39 39 37 36 37 36 34 30 27 30 28 26 26 23 21 20 15 16 17 17 16 17 17 17 16 16 16 18 16 13 15 16 15 12 8 5 4 2 0
20 25 29 34 37 40 42 45 40 38 35 35 36 33 32 31 29 27 26 26 25 22 21 20 19 19 20 19 19 18 15 13 13 12 12 11 10 10 11 5 3 7 7
29 30 33 29 31 30 33 40 47 47 47 44 39 38 37 30 33 33 34 32 31 26 24 24 21 20 20 20 19 17 16 15 13 15 11 11 9 9 9 9 7 4 3
27 32 31 34 41 34 30 33 38 44 46 43 45 43 40 39 36 34 40 39 38 37 33 26 26 24 22 19 19 19 19 19 18 15 10 7 9 9 11 7 7 4 1
46 47 46 41 45 38 38 41 40 40 35 40 43 48 49 42 42 42 44 46 44 42 38 34 34 31 29 25 21 21 20 20 21 18 14 12 11 10 11 11 10 8 7
49 47 46 47 52 56 57 52 50 50 50 47 47 44 44 42 47 44 47 47 46 44 44 42 40 34 31 31 30 28 24 23 24 24 24 17 17 16 14 14 14 14 14
51 52 52 51 48 54 59 62 63 63 59 55 52 46 38 43 47 47 47 46 46 45 42 42 42 40 37 38 37 36 30 31 29 23 28 27 20 20 18 15 16 15 17
44 45 47 49 50 51 54 55 54 54 55 53 55 56 52 50 46 46 52 53 51 50 49 47 48 46 44 41 43 42 37 34 34 30 26 30 31 27 22 18 17 16 17
46 46 47 48 49 51 52 52 53 54 54 55 57 58 57 56 54 44 44 45 46 55 62 56 54 52 49 48 48 46 43 40 39 41 39 35 36 32 28 25 23 23 19
54 55 55 55 55 56 56 56 55 57 57 58 59 59 58 60 57 55 53 54 49 47 40 44 51 58 54 51 48 46 47 46 43 44 40 41 37 37 34 29 32 33 32
60 61 62 62 64 64 64 65 64 64 63 63 64 64 63 56 57 62 66 62 59 56 55 50 48 47 49 44 42 42 40 42 42 43 43 42 39 37 33 34 37 29 26
63 66 68 69 71 72 72 72 72 73 73 74 74 72 70 67 65 66 64 66 69 71 69 61 60 54 46 44 37 40 40 40 40 43 43 44 40 41 38 40 37 32 31
67 69 72 74 76 79 80 81 79 79 81 83 82 81 79 78 74 71 70 70 69 68 68 63 63 62 55 52 45 47 48 44 46 45 47 44 41 41 38 36 38 40 39
72 73 74 74 76 79 81 83 82 81 84 86 87 87 88 86 86 82 80 77 76 73 70 68 65 64 64 62 63 57 53 48 49 51 47 44 40 42 45 40 35 37 39
Wind_Direction
109 95 98 76 81 86 90 78 54 48 49 47 51 53 55 56 60 54 44 34 37 43 51 48 49 48 41 39 45 50 49 51 56 59 61 61 63 64 65 70 79 87 90
137 140 112 87 72 63 68 59 46 50 48 46 36 43 49 44 43 44 33 36 32 39 45 37 37 41 36 32 39 51 50 51 53 55 57 60 61 63 61 63 68 75 83
169 148 106 94 81 63 58 56 28 19 56 53 46 26 40 39 40 51 31 42 29 34 40 34 38 36 31 25 31 44 51 46 53 55 54 54 58 60 61 63 63 65 72
193 212 158 94 85 7 36 55 33 351 31 65 37 38 12 14 32 35 23 43 27 24 20 30 43 41 30 26 31 47 49 51 54 57 58 59 57 57 58 62 65 66 67
210 227 141 174 156 257 342 161 299 298 347 11 6 7 5 7 347 7 11 5 6 32 42 43 31 36 38 31 36 37 52 60 61 62 63 65 61 59 58 59 62 64 65
208 215 231 250 211 222 210 223 250 317 321 313 329 330 345 335 338 339 345 351 347 17 18 39 20 14 27 27 33 37 50 59 61 59 56 58 63 62 61 62 65 63 62
226 240 239 259 272 277 276 275 256 281 295 307 280 310 318 309 317 341 326 329 325 342 358 1 358 7 4 11 22 26 38 49 49 49 48 53 57 62 60 60 63 68 69
232 241 255 261 263 259 283 280 272 273 283 291 284 288 290 296 306 323 321 324 323 331 339 340 340 341 354 354 4 15 32 37 41 47 43 40 47 48 50 58 65 70 72
247 249 253 258 260 265 274 281 271 272 277 282 280 283 288 290 291 296 313 316 314 306 319 316 313 320 344 341 1 24 34 37 27 21 15 11 5 28 32 36 58 68 71
255 256 257 258 265 268 270 279 274 266 272 275 282 284 285 283 284 289 299 306 312 315 320 312 313 312 325 339 349 12 1 17 13 27 26 8 351 27 31 31 46 71 71
250 246 253 260 263 262 267 274 281 278 274 268 279 280 275 273 281 290 294 301 310 317 320 321 303 320 310 296 310 293 329 333 357 354 18 17 3 343 32 27 24 48 76
253 250 249 257 261 262 261 260 267 266 271 273 275 273 270 267 275 281 286 286 298 306 323 330 332 313 302 291 286 285 291 316 324 334 340 356 3 359 313 15 30 23 45
261 254 256 259 262 262 260 260 257 259 259 259 266 280 266 262 267 272 268 273 282 292 303 314 314 316 309 297 301 308 276 277 290 302 320 337 341 353 339 224 172 177 322
264 258 258 259 261 264 264 261 256 257 260 258 259 262 267 265 259 267 267 268 275 278 292 298 302 305 298 302 294 292 298 280 286 298 315 327 339 352 32 26 255 242 261
246 258 263 257 263 276 272 273 271 266 262 260 262 265 262 263 255 264 266 265 270 274 286 293 294 300 297 294 296 288 283 278 292 290 291 316 318 312 347 8 6 11 315
250 261 257 268 262 257 258 269 272 273 268 265 262 261 259 258 258 266 266 264 264 268 277 277 283 283 292 288 290 290 286 281 283 293 267 279 309 292 288 298 344 342 6
257 256 249 253 262 256 248 254 267 270 272 269 267 264 261 258 257 256 259 260 264 267 267 271 278 279 277 276 289 282 282 282 278 277 262 273 292 298 301 275 259 263 274
269 262 259 257 251 249 254 255 255 263 269 271 271 268 265 264 258 258 256 258 261 264 267 269 273 270 274 271 282 284 275 272 276 266 265 271 277 278 279 286 279 281 272
268 268 266 260 256 253 257 260 263 265 268 264 266 264 267 261 258 253 254 256 258 260 260 263 264 266 268 270 275 275 278 270 262 268 264 264 269 280 269 278 280 273 274
267 266 265 263 263 261 261 261 260 259 259 261 262 259 260 262 267 255 250 255 253 256 257 260 262 263 265 265 269 271 270 268 262 260 265 267 265 263 265 267 280 300 290
273 272 271 270 267 266 265 265 265 264 263 260 259 258 257 258 261 256 252 253 254 257 256 260 263 264 265 264 268 268 268 271 261 259 260 263 264 262 261 262 269 284 292
277 278 277 276 274 273 271 270 268 265 265 266 263 260 259 257 256 256 253 253 254 259 260 262 263 264 264 265 268 266 268 266 261 256 259 259 260 258 257 263 272 274 281
275 275 275 275 274 274 273 272 271 270 268 266 264 262 260 256 256 256 254 254 254 258 261 263 264 267 264 264 261 266 267 265 259 255 257 262 259 257 257 263 263 270 276
279 278 277 276 276 274 272 270 269 268 267 266 265 265 263 260 258 257 255 256 256 256 257 257 258 259 260 260 259 262 266 263 261 258 257 259 264 252 258 260 261 260 271
284 281 279 278 277 276 273 271 269 267 265 263 262 262 263 263 262 260 258 257 257 257 259 256 254 254 250 245 245 255 255 258 261 259 256 259 261 261 261 259 254 258 266
290 288 286 283 281 278 275 272 269 266 263 262 261 260 259 259 260 259 259 258 257 256 254 254 253 252 248 244 247 250 251 256 258 259 257 256 258 256 254 256 257 259 263
Height
10984 10984 10984 10984 10983 10982 10983 10983 10984 10983 10982 10981 10982 10981 10979 10978 10975 10974 10972 10970 10965 10961 10959 10956 10952 10950 10947 10943 10940 10939 10936 10932 10929 10926 10924 10920 10919 10918 10917 10913 10913 10912 10912
10985 10985 10985 10985 10986 10986 10986 10985 10984 10985 10984 10984 10983 10983 10981 10979 10978 10977 10975 10972 10970 10967 10963 10959 10957 10955 10951 10948 10945 10943 10939 10936 10933 10930 10928 10926 10924 10922 10921 10919 10917 10917 10915
10986 10985 10984 10985 10986 10987 10986 10985 10986 10987 10987 10986 10985 10985 10984 10982 10981 10979 10976 10974 10972 10971 10967 10965 10961 10959 10957 10955 10950 10946 10942 10940 10937 10935 10934 10932 10930 10927 10926 10925 10923 10922 10920
10984 10985 10984 10984 10986 10986 10986 10985 10986 10986 10989 10988 10986 10986 10986 10986 10983 10982 10980 10977 10974 10974 10971 10970 10966 10962 10963 10960 10955 10950 10946 10943 10941 10939 10938 10937 10935 10932 10931 10930 10929 10927 10926
10983 10984 10985 10986 10985 10986 10988 10987 10986 10987 10989 10988 10987 10986 10985 10986 10985 10983 10982 10980 10978 10976 10973 10973 10970 10967 10964 10963 10960 10957 10952 10949 10947 10944 10942 10940 10938 10936 10935 10934 10933 10931 10930
10981 10983 10984 10985 10986 10986 10986 10986 10986 10987 10988 10988 10987 10987 10985 10984 10985 10983 10982 10981 10980 10978 10977 10976 10974 10970 10967 10965 10963 10961 10957 10955 10952 10950 10948 10946 10943 10941 10939 10938 10937 10936 10934
10979 10981 10981 10982 10984 10984 10986 10986 10986 10986 10987 10987 10987 10986 10985 10984 10983 10982 10981 10981 10980 10979 10979 10977 10975 10973 10970 10967 10965 10962 10960 10958 10957 10955 10953 10951 10949 10945 10944 10943 10941 10940 10939
10976 10978 10978 10979 10981 10981 10982 10983 10984 10986 10986 10986 10985 10984 10983 10982 10981 10980 10979 10978 10978 10977 10977 10976 10976 10974 10972 10969 10966 10964 10963 10961 10959 10957 10956 10954 10952 10951 10950 10948 10945 10944 10943
10972 10974 10975 10976 10977 10977 10979 10979 10979 10980 10982 10983 10984 10982 10981 10980 10978 10977 10977 10976 10976 10976 10976 10974 10974 10973 10971 10970 10967 10966 10964 10962 10960 10959 10957 10956 10955 10953 10953 10952 10950 10948 10947
10966 10968 10970 10970 10971 10973 10974 10976 10975 10976 10976 10978 10979 10979 10978 10978 10976 10976 10974 10973 10973 10973 10973 10972 10971 10970 10970 10969 10969 10966 10966 10964 10963 10961 10959 10956 10955 10954 10953 10953 10952 10950 10950
10958 10963 10965 10966 10968 10969 10970 10971 10971 10971 10972 10973 10973 10974 10973 10972 10972 10972 10970 10970 10969 10969 10970 10970 10968 10968 10967 10966 10966 10965 10965 10964 10963 10962 10959 10957 10955 10954 10952 10953 10953 10951 10950
10950 10953 10955 10958 10959 10960 10961 10962 10964 10964 10964 10965 10966 10968 10970 10970 10969 10968 10967 10968 10968 10967 10967 10967 10965 10965 10965 10964 10963 10963 10961 10962 10962 10962 10959 10957 10955 10954 10951 10952 10952 10952 10951
10944 10946 10947 10949 10951 10953 10952 10954 10955 10955 10958 10959 10960 10961 10964 10965 10964 10964 10963 10964 10964 10964 10964 10964 10963 10962 10961 10960 10960 10959 10958 10960 10960 10960 10958 10956 10955 10953 10950 10950 10950 10951 10951
10935 10937 10939 10940 10941 10943 10943 10944 10945 10946 10949 10950 10952 10954 10957 10958 10958 10958 10958 10958 10958 10959 10959 10960 10960 10959 10958 10957 10957 10956 10956 10956 10957 10955 10955 10954 10953 10952 10950 10949 10949 10949 10950
10931 10933 10932 10932 10934 10934 10933 10933 10934 10936 10938 10940 10942 10945 10948 10950 10951 10951 10950 10951 10951 10952 10952 10952 10954 10954 10954 10954 10953 10952 10952 10953 10952 10951 10952 10952 10952 10951 10950 10948 10947 10946 10946
10926 10925 10925 10924 10925 10925 10925 10924 10925 10925 10927 10931 10933 10934 10936 10940 10941 10942 10941 10942 10944 10945 10946 10947 10946 10948 10948 10948 10948 10947 10947 10947 10947 10948 10949 10950 10949 10948 10948 10946 10946 10945 10944
10919 10918 10918 10917 10916 10915 10916 10917 10916 10917 10916 10918 10920 10922 10925 10929 10930 10932 10932 10932 10933 10934 10936 10937 10939 10940 10940 10941 10942 10942 10941 10941 10943 10943 10944 10946 10946 10945 10945 10944 10942 10941 10941
10905 10904 10904 10904 10904 10903 10904 10905 10906 10905 10906 10908 10909 10910 10914 10918 10920 10922 10923 10922 10922 10924 10926 10928 10929 10930 10931 10932 10933 10935 10935 10935 10936 10937 10939 10940 10941 10941 10941 10940 10939 10938 10936
10892 10890 10889 10890 10890 10890 10889 10891 10893 10893 10893 10894 10895 10900 10900 10902 10904 10907 10908 10908 10910 10913 10914 10916 10918 10920 10922 10922 10924 10925 10927 10928 10929 10930 10931 10934 10935 10936 10936 10935 10934 10933 10932
10879 10878 10877 10876 10876 10877 10877 10877 10877 10878 10878 10878 10879 10881 10886 10888 10890 10893 10893 10895 10896 10900 10901 10903 10905 10908 10910 10913 10913 10915 10918 10918 10919 10921 10923 10925 10928 10930 10930 10929 10929 10929 10928
10866 10865 10864 10863 10861 10861 10861 10861 10861 10861 10861 10862 10862 10865 10869 10872 10873 10877 10878 10880 10884 10886 10888 10889 10891 10894 10897 10900 10902 10903 10905 10907 10908 10910 10913 10916 10919 10920 10922 10922 10923 10924 10923
10851 10849 10847 10845 10844 10843 10843 10843 10844 10844 10844 10843 10843 10845 10849 10853 10855 10859 10861 10863 10867 10871 10874 10876 10878 10881 10883 10886 10888 10890 10891 10893 10895 10898 10902 10905 10909 10910 10913 10914 10915 10916 10917
10836 10833 10830 10828 10825 10824 10825 10824 10825 10824 10824 10823 10823 10825 10830 10834 10837 10841 10843 10846 10850 10855 10858 10862 10864 10865 10868 10872 10874 10877 10879 10879 10883 10887 10891 10893 10897 10899 10902 10903 10906 10908 10909
10818 10815 10812 10808 10804 10801 10802 10803 10803 10802 10802 10801 10802 10804 10807 10813 10818 10821 10826 10828 10832 10836 10841 10846 10848 10852 10856 10858 10860 10865 10867 10868 10870 10874 10878 10881 10884 10887 10891 10893 10896 10898 10900
10798 10793 10789 10785 10781 10775 10776 10775 10777 10777 10776 10775 10779 10783 10785 10787 10793 10799 10803 10806 10810 10816 10820 10826 10830 10834 10842 10844 10844 10849 10853 10857 10857 10861 10866 10870 10872 10875 10878 10881 10884 10887 10889
10773 10768 10763 10760 10755 10748 10746 10744 10749 10748 10747 10746 10749 10752 10755 10761 10766 10773 10776 10780 10784 10790 10796 10802 10808 10813 10819 10827 10831 10837 10842 10845 10846 10848 10853 10856 10861 10864 10865 10869 10873 10876 10878